When you browse on this site, cookies collect data to enhance your experience and personalize the content and advertising you see.
Visit our Privacy Policy to learn more. By continuing to use the site, you agree to this use of cookies and data.
  • In Hungary
  • List of Countries
  • For 7 days
  • Water Temperature
  • Satellite Maps
  • Weather Map
  • News
  • Weather Widgets
  • user-avatar
    Login

    Hourly Weather León

    Today, 18 November, Sunday

    Time Temperature Precipitation Wind Pressure Humidity
    00:00 +26°C° 0 mm 3 mps 750 mmHg 74%
    01:00 +26°C° 0 mm 3 mps 749 mmHg 76%
    02:00 +26°C° 0 mm 3 mps 749 mmHg 77%
    03:00 +25°C° 0 mm 3 mps 749 mmHg 78%
    04:00 +25°C° 0 mm 3 mps 749 mmHg 79%
    05:00 +25°C° 0 mm 3 mps 750 mmHg 80%
    06:00 +25°C° 0 mm 3 mps 750 mmHg 80%
    07:00 +27°C° 0 mm 3 mps 750 mmHg 73%
    08:00 +29°C° 0 mm 4 mps 750 mmHg 66%
    09:00 +32°C° 0 mm 4 mps 751 mmHg 60%
    10:00 +34°C° 0 mm 4 mps 750 mmHg 56%
    11:00 +35°C° 0 mm 4 mps 750 mmHg 52%
    12:00 +36°C° 0 mm 4 mps 749 mmHg 48%
    13:00 +36°C° 0 mm 4 mps 749 mmHg 49%
    14:00 +36°C° 0 mm 4 mps 748 mmHg 50%
    15:00 +36°C° 0 mm 4 mps 747 mmHg 51%
    16:00 +34°C° 0 mm 3 mps 748 mmHg 56%
    17:00 +33°C° 0 mm 3 mps 748 mmHg 60%
    18:00 +30°C° 0 mm 3 mps 748 mmHg 65%
    19:00 +29°C° 0 mm 3 mps 749 mmHg 67%
    20:00 +29°C° 0 mm 3 mps 749 mmHg 69%
    21:00 +28°C° 0 mm 3 mps 750 mmHg 71%
    22:00 +27°C° 0 mm 3 mps 750 mmHg 72%
    23:00 +27°C° 0 mm 3 mps 750 mmHg 74%

    Tomorrow, 19 November, Monday

    Time Temperature Precipitation Wind Pressure Humidity
    00:00 +26°C° 0 mm 3 mps 750 mmHg 76%
    01:00 +26°C° 0 mm 3 mps 750 mmHg 77%
    02:00 +26°C° 0 mm 3 mps 749 mmHg 78%
    03:00 +25°C° 0 mm 3 mps 749 mmHg 80%
    04:00 +25°C° 0 mm 3 mps 749 mmHg 80%
    05:00 +25°C° 0 mm 3 mps 749 mmHg 81%
    06:00 +25°C° 0 mm 3 mps 750 mmHg 81%
    07:00 +27°C° 0 mm 3 mps 750 mmHg 74%
    08:00 +29°C° 0 mm 4 mps 750 mmHg 67%
    09:00 +32°C° 0 mm 4 mps 751 mmHg 59%
    10:00 +33°C° 0 mm 4 mps 750 mmHg 56%
    11:00 +35°C° 0 mm 4 mps 750 mmHg 52%
    12:00 +36°C° 0 mm 4 mps 749 mmHg 48%
    13:00 +36°C° 0 mm 4 mps 749 mmHg 49%
    14:00 +36°C° 0 mm 4 mps 748 mmHg 49%
    15:00 +36°C° 0 mm 3 mps 747 mmHg 50%
    16:00 +34°C° 0 mm 3 mps 748 mmHg 54%
    17:00 +31°C° 0 mm 3 mps 748 mmHg 59%
    18:00 +30°C° 0 mm 3 mps 748 mmHg 63%
    19:00 +29°C° 0 mm 3 mps 749 mmHg 66%
    20:00 +28°C° 0 mm 3 mps 750 mmHg 68%
    21:00 +28°C° 0 mm 3 mps 750 mmHg 70%
    22:00 +27°C° 0 mm 3 mps 750 mmHg 72%
    23:00 +27°C° 0 mm 3 mps 750 mmHg 74%

    Day after tomorrow, 20 November, Tuesday

    Time Temperature Precipitation Wind Pressure Humidity
    00:00 +27°C° 0 mm 3 mps 750 mmHg 76%
    01:00 +26°C° 0 mm 3 mps 750 mmHg 77%
    02:00 +26°C° 0 mm 3 mps 749 mmHg 79%
    03:00 +26°C° 0 mm 3 mps 749 mmHg 80%
    04:00 +25°C° 0 mm 3 mps 749 mmHg 80%
    05:00 +25°C° 0 mm 3 mps 749 mmHg 80%
    06:00 +25°C° 0 mm 3 mps 749 mmHg 80%
    07:00 +27°C° 0 mm 3 mps 750 mmHg 74%
    08:00 +29°C° 0 mm 4 mps 751 mmHg 67%
    09:00 +32°C° 0 mm 4 mps 751 mmHg 61%
    10:00 +33°C° 0 mm 4 mps 751 mmHg 57%
    11:00 +34°C° 0 mm 4 mps 750 mmHg 53%
    12:00 +36°C° 0 mm 4 mps 750 mmHg 49%
    13:00 +36°C° 0 mm 4 mps 749 mmHg 49%
    14:00 +36°C° 0 mm 3 mps 748 mmHg 50%
    15:00 +36°C° 0 mm 3 mps 748 mmHg 51%
    16:00 +34°C° 0 mm 3 mps 748 mmHg 55%
    17:00 +33°C° 0 mm 3 mps 748 mmHg 59%
    18:00 +30°C° 0 mm 3 mps 749 mmHg 63%
    19:00 +29°C° 0 mm 3 mps 750 mmHg 65%
    20:00 +29°C° 0 mm 3 mps 750 mmHg 67%
    21:00 +28°C° 0 mm 3 mps 751 mmHg 69%
    22:00 +27°C° 0 mm 3 mps 751 mmHg 71%
    23:00 +27°C° 0 mm 3 mps 751 mmHg 73%

    21 November, Wednesday

    Time Temperature Precipitation Wind Pressure Humidity
    00:00 +26°C° 0 mm 3 mps 751 mmHg 75%
    01:00 +26°C° 0 mm 3 mps 750 mmHg 75%
    02:00 +26°C° 0 mm 3 mps 750 mmHg 76%
    03:00 +26°C° 0 mm 3 mps 750 mmHg 77%
    04:00 +25°C° 0 mm 3 mps 750 mmHg 77%
    05:00 +25°C° 0 mm 3 mps 750 mmHg 78%
    06:00 +25°C° 0 mm 3 mps 750 mmHg 78%
    07:00 +27°C° 0 mm 4 mps 751 mmHg 71%
    08:00 +29°C° 0 mm 4 mps 751 mmHg 64%
    09:00 +32°C° 0 mm 5 mps 752 mmHg 57%
    10:00 +34°C° 0 mm 4 mps 751 mmHg 52%
    11:00 +35°C° 0 mm 4 mps 750 mmHg 48%
    12:00 +36°C° 0 mm 4 mps 750 mmHg 44%
    13:00 +36°C° 0 mm 4 mps 749 mmHg 45%
    14:00 +36°C° 0 mm 4 mps 748 mmHg 46%
    15:00 +36°C° 0 mm 4 mps 748 mmHg 47%
    16:00 +34°C° 0 mm 3 mps 748 mmHg 51%
    17:00 +31°C° 0 mm 3 mps 749 mmHg 55%
    18:00 +30°C° 0 mm 3 mps 749 mmHg 59%
    19:00 +29°C° 0 mm 3 mps 750 mmHg 62%
    20:00 +28°C° 0 mm 3 mps 750 mmHg 64%
    21:00 +28°C° 0 mm 3 mps 751 mmHg 66%
    22:00 +27°C° 0 mm 3 mps 751 mmHg 68%
    23:00 +27°C° 0 mm 3 mps 750 mmHg 70%

    22 November, Thursday

    Time Temperature Precipitation Wind Pressure Humidity
    00:00 +26°C° 0 mm 3 mps 750 mmHg 72%
    01:00 +26°C° 0 mm 3 mps 750 mmHg 73%
    02:00 +25°C° 0 mm 3 mps 750 mmHg 75%
    03:00 +25°C° 0 mm 3 mps 749 mmHg 76%
    04:00 +25°C° 0 mm 3 mps 749 mmHg 77%
    05:00 +25°C° 0 mm 3 mps 750 mmHg 78%
    06:00 +24°C° 0 mm 2 mps 750 mmHg 79%
    07:00 +26°C° 0 mm 3 mps 751 mmHg 73%
    08:00 +29°C° 0 mm 3 mps 751 mmHg 66%
    09:00 +32°C° 0 mm 4 mps 751 mmHg 59%
    10:00 +33°C° 0 mm 4 mps 750 mmHg 54%
    11:00 +35°C° 0 mm 4 mps 750 mmHg 49%
    12:00 +36°C° 0 mm 4 mps 749 mmHg 44%
    13:00 +36°C° 0 mm 3 mps 748 mmHg 43%
    14:00 +36°C° 0 mm 3 mps 748 mmHg 43%
    15:00 +36°C° 0 mm 3 mps 747 mmHg 43%
    16:00 +34°C° 0 mm 3 mps 747 mmHg 48%
    17:00 +33°C° 0 mm 3 mps 748 mmHg 53%
    18:00 +30°C° 0 mm 3 mps 748 mmHg 58%
    19:00 +29°C° 0 mm 3 mps 749 mmHg 60%
    20:00 +29°C° 0 mm 3 mps 750 mmHg 63%
    21:00 +28°C° 0 mm 3 mps 750 mmHg 65%
    22:00 +27°C° 0 mm 3 mps 750 mmHg 68%
    23:00 +27°C° 0 mm 3 mps 749 mmHg 70%

    23 November, Friday

    Time Temperature Precipitation Wind Pressure Humidity
    00:00 +26°C° 0 mm 3 mps 749 mmHg 73%
    01:00 +26°C° 0 mm 3 mps 749 mmHg 75%
    02:00 +25°C° 0 mm 3 mps 749 mmHg 77%
    03:00 +25°C° 0 mm 3 mps 748 mmHg 79%
    04:00 +25°C° 0 mm 3 mps 749 mmHg 80%
    05:00 +24°C° 0 mm 2 mps 749 mmHg 81%
    06:00 +24°C° 0 mm 2 mps 749 mmHg 82%
    07:00 +26°C° 0 mm 3 mps 750 mmHg 74%
    08:00 +28°C° 0 mm 3 mps 750 mmHg 65%
    09:00 +31°C° 0 mm 3 mps 750 mmHg 57%
    10:00 +33°C° 0 mm 3 mps 750 mmHg 51%
    11:00 +35°C° 0 mm 3 mps 749 mmHg 44%
    12:00 +36°C° 0 mm 3 mps 748 mmHg 38%
    13:00 +36°C° 0 mm 3 mps 748 mmHg 39%
    14:00 +36°C° 0 mm 3 mps 747 mmHg 40%
    15:00 +36°C° 0 mm 3 mps 746 mmHg 41%
    16:00 +34°C° 0 mm 2 mps 747 mmHg 49%
    17:00 +31°C° 0 mm 2 mps 747 mmHg 56%
    18:00 +29°C° 0 mm 2 mps 748 mmHg 63%
    19:00 +28°C° 0 mm 2 mps 748 mmHg 66%
    20:00 +28°C° 0 mm 2 mps 749 mmHg 69%
    21:00 +27°C° 0 mm 2 mps 750 mmHg 72%
    22:00 +27°C° 0 mm 2 mps 749 mmHg 73%
    23:00 +26°C° 0 mm 2 mps 749 mmHg 75%
    Show more